Content
SEND FEEDBACK

Daily
Averages
Monthly
Summary
United States of America

CONCORDIA, MISSOURI


Home > North America > United States > Missouri
Elevation: 780 feet     Latitude: 38 59N     Longitude: 093 34W

WEATHER
 
SELECT A DAY
Number of Records: 142,804;   Date Range: 1/1/00 - 9/29/14
 
SHARE

PRINT THIS DATA

[ ← Previous Day ]
WEATHER ALMANAC - JANUARY 23, 2013
[ Next Day → ]
[ °C ]   °F
Weather ElementAverageHighLow
Temperature29.3 °F46.6 °F (2:55 pm)14 °F (7:55 am)
Dewpoint16.6 °F22.6 °F (3:55 pm)7.9 °F (5:55 am)
Humidity61.3 %82 % (7:55 am)39 % (1:55 pm)
Barometer30.28 in30.43 in (11:55 pm)30.19 in (1:55 pm)
Wind Speed5.9 mph13.8 mph (9:55 pm)
Weather ElementAverage
Visibility10 mi
Wind DirectionSSE (170 °)

Weather ElementTotal
Precipitation---
Heating Degree Days34.7 (Base 65)
Averaged from 23 records on January 23, 2013
WEATHER CONDITIONS BREAKOUT
WIND DIRECTION BREAKOUT
WEATHER BY HOUR - JANUARY 23, 2013
[ °C ]   °F
Local TimeTemperatureDewpointHumidityBarometerVisibilityWind DirectionWind SpeedGust SpeedPrecipitationEventsConditions
1:55 AM16.3 °F8.1 °F70 %30.32 in10.0 miEast (90°)3.5 mphClear
2:55 AM15.6 °F8.1 °F72 %30.30 in10.0 miESE (110°)3.5 mphClear
3:55 AM15.1 °F8.4 °F75 %30.29 in10.0 miCalmClear
4:55 AM14.7 °F8.4 °F76 %30.28 in10.0 miESE (110°)3.5 mphClear
5:55 AM14.7 °F7.9 °F74 %30.28 in10.0 miESE (120°)3.5 mphClear
6:55 AM14.7 °F8.1 °F75 %30.28 in10.0 miCalmClear
7:55 AM14.0 °F9.3 °F82 %30.28 in10.0 miSSE (150°)3.5 mphClear
8:55 AM20.7 °F14.5 °F77 %30.27 in10.0 miSSW (200°)4.6 mphClear
9:55 AM30.0 °F21.2 °F70 %30.26 in10.0 miSouth (190°)6.9 mphClear
10:55 AM36.0 °F21.2 °F55 %30.27 in10.0 miWSW (240°)3.5 mphClear
11:55 AM41.0 °F22.5 °F48 %30.24 in10.0 miCalmClear
12:55 PM44.1 °F21.7 °F41 %30.21 in10.0 miWest (260°)5.8 mphClear
1:55 PM46.0 °F22.3 °F39 %30.19 in10.0 miNW (310°)6.9 mphClear
2:55 PM46.6 °F22.5 °F39 %30.19 in10.0 miWNW (300°)6.9 mphClear
3:55 PM46.6 °F22.6 °F39 %30.20 in10.0 miNorth (360°)10.4 mphClear
4:55 PM41.7 °F22.1 °F46 %30.22 in10.0 miNorth (360°)8.1 mphClear
5:55 PM36.5 °F20.3 °F52 %30.25 in10.0 miNorth (350°)4.6 mphClear
6:55 PM35.6 °F21.0 °F55 %30.28 in10.0 miNNW (340°)6.9 mphClear
7:55 PM32.2 °F21.4 °F64 %30.30 in10.0 miNorth (10°)6.9 mphClear
8:55 PM31.5 °F20.5 °F64 %30.35 in10.0 miNorth (360°)12.7 mphClear
9:55 PM29.3 °F17.2 °F61 %30.38 in10.0 miNNE (20°)13.8 mphClear
10:55 PM27.0 °F16.3 °F64 %30.41 in10.0 miNorth (10°)11.5 mphClear
11:55 PM23.7 °F16.2 °F73 %30.43 in10.0 miNNE (20°)8.1 mphClear
Hourly data recorded from KSZL, located miles away from Concordia, Missouri







STORIES FROM OUR PARTNERS